Regional Weather Roundup
Issued by NWS

Home | Current Version | Previous Version | Text Only | Print | Product List | Glossary On
Versions: 1 2 3 4 5 6 7 8 9 10 11 12 13 14 15 16 17 18 19 20 21 22 23 24 25 26 27 28 29 30 31 32 33 34 35 36 37 38 39 40 41 42 43 44 45 46 47 48 49 50
000
ASUS44 KFWD 250515
RWRTX
NORTH TEXAS HOURLY WEATHER ROUNDUP
NATIONAL WEATHER SERVICE FORT WORTH TX
1100 PM CST WED DEC 24 2014

NOTE: "FAIR" INDICATES FEW OR NO CLOUDS BELOW 12,000 FEET WITH NO
SIGNIFICANT WEATHER AND/OR OBSTRUCTIONS TO VISIBILITY.

TXZ118-119-250600-
DALLAS/FORT WORTH METROPLEX

CITY           SKY/WX    TMP DP  RH WIND       PRES   REMARKS
DFW AIRPORT    CLEAR     37  28  70 S9        30.02F WCI  30
DALLAS LOVE    CLEAR     39  29  67 SE3       30.03F
FTW MEACHAM    CLEAR     40  29  64 S5        30.02S WCI  37
DAL-EXECUTIVE  CLEAR     40  28  62 S3        30.02F
FTW-ALLIANCE   CLEAR     35  29  78 S6        30.02S WCI  30
FTW-SPINKS     CLEAR     33  28  81 SW5       30.05S WCI  29
ARLINGTON      CLEAR     34  27  75 CALM      30.03F
GRAND PRAIRIE  CLEAR     39  32  76 S3        30.05F
ADDISON        CLEAR     39  31  73 S5        30.04F WCI  36
MESQUITE       CLEAR     35  30  82 S6        30.04F WCI  30
LANCASTER      CLEAR     35  28  77 CALM      30.05F
$$

TXZ091>094-102>105-117-120-121-131>134-250600-
NORTH CENTRAL TEXAS

CITY           SKY/WX    TMP DP  RH WIND       PRES   REMARKS
SHRMAN/DENISON CLEAR     37  32  83 CALM      30.00F
GAINESVILLE    CLEAR     34  26  72 CALM      30.00F
BOWIE          CLEAR     32  28  82 SE5       29.96F WCI  28
BRIDGEPORT     CLEAR     37  31  78 SW6       30.02F WCI  32
DECATUR        CLEAR     42  25  50 S12       29.99F WCI  36
DENTON         CLEAR     35  28  75 S3        30.01F
MCKINNEY       CLEAR     33  29  85 S7        30.02F WCI  27
GREENVILLE     CLEAR     34  32  93 SE3       30.04F
ROCKWALL       CLEAR     38  32  79 S7        30.02F WCI  32
TERRELL        CLEAR     36  30  79 CALM      30.05F
WAXAHACHIE     CLEAR     35  31  85 S3        30.05F
CLEBURNE       CLEAR     37  30  75 CALM      30.05S
GRANBURY       CLEAR     35  29  79 CALM      30.05S
$$

TXZ083>090-098>101-113>116-127>130-139>142-154-155-250600-
WESTERN NORTH TEXAS

CITY           SKY/WX    TMP DP  RH WIND       PRES   REMARKS
WICHITA FALLS  CLEAR     36  25  64 S12       29.93F WCI  28
WF-KICKAPOO    CLEAR     35  26  68 S8        29.95F WCI  29
VERNON         CLEAR     40  18  42 S13       29.91F WCI  32
ABILENE        CLEAR     35  24  64 SE7       29.99F WCI  29
ABILENE-DYESS  CLEAR     32  24  73 S2        29.97F
BRECKENRIDGE   CLEAR     42  24  50 S9        29.99F WCI  36
GRAHAM         CLEAR     35  27  73 S5        29.97F WCI  31
MINERAL WELLS  CLEAR     33  27  78 SE5       30.00S WCI  29
STEPHENVILLE   CLEAR     34  27  77 S3        30.06S
COMANCHE       CLEAR     40  27  59 SW9       30.04S WCI  34
BROWNWOOD      PTCLDY    32  28  86 SE5       30.04F WCI  27
COLEMAN        CLEAR     34  29  81 SW6       30.03F WCI  29
BRADY          CLEAR     36  23  60 CALM      30.03F
$$

TXZ143>147-156>162-174-175-250600-
CENTRAL TEXAS

CITY           SKY/WX    TMP DP  RH WIND       PRES   REMARKS
WACO           CLEAR     35  29  78 SW5       30.08F WCI  31
WACO-TSTC      CLEAR     36  32  87 CALM      30.08
WACO-MCGREGOR  FAIR      34  25  69 S3        30.08F
HILLSBORO      CLEAR     36  28  75 SE6       30.06F WCI  31
CORSICANA      CLEAR     38  31  76 S6        30.08F WCI  33
MEXIA          CLEAR     37  32  82 CALM      30.07F
HEARNE         CLEAR     33  32  96 NE3       30.11F
CAMERON        CLEAR     41  32  69 SW7       30.10F WCI  36
TEMPLE         CLEAR     34  25  69 CALM      30.07F
KILLEEN        CLEAR     34  28  76 SW3       30.07F
KILLEEN-SKYLRK CLEAR     37  25  60 W5        30.05F WCI  34
FORT HOOD      CLEAR     38  28  66 W3        30.07F
GATESVILLE     CLEAR     36  30  80 CALM      30.09S
HAMILTON       CLEAR     35  26  71 SW9       30.05F WCI  27
$$

TXZ095>097-106>112-122>126-135>138-148>153-164>167-250600-
EAST TEXAS

CITY           SKY/WX    TMP DP  RH WIND       PRES   REMARKS
PARIS          CLEAR     36  28  75 CALM      30.03F
SULPHUR SPRNGS CLEAR     40  32  74 S8        30.06F WCI  34
MOUNT PLEASANT CLEAR     34  32  92 S3        30.07F
MINEOLA        CLEAR     36  32  87 CALM      30.07F
TYLER          CLEAR     36  31  82 S8        30.07S WCI  30
LONGVIEW       CLEAR     36  31  82 S5        30.07F WCI  32
MARSHALL       CLEAR     33  32  94 CALM      30.10S
ATHENS         CLEAR     32  32 100 CALM      30.07F
PALESTINE      CLEAR     32  32  99 CALM      30.10F
JACKSONVILLE   CLEAR     40  35  82 S3        30.10S
HENDERSON      CLEAR     32  32  99 CALM      30.09F
NACOGDOCHES      N/A    N/A N/A N/A MISG        N/A
LUFKIN         CLEAR     36  31  82 E3        30.10F
$$

SUPPLEMENTAL OBSERVATIONS (CENTRAL)

CITY           SKY/WX    TMP DP  RH WIND       PRES   REMARKS
LAKE TEXOMA      N/A     39  32  75 S7          N/A  WCI  34
PAT MAYSE LAKE   N/A     39  32  75 SE5         N/A  WCI  36
GREENVILLE       N/A     37  30  75 S5          N/A  WCI  34
CEDAR HILL       N/A     41  28  60 S5          N/A  WCI  38
ATHENS           N/A     37  34  87 S1          N/A
PALESTINE        N/A     34  30  86 CALM        N/A
LAKE LIMESTONE   N/A     36  32  87 S3          N/A
MCGREGOR         N/A     34  30  86 SW3         N/A
TEMPLE           N/A     41  30  65 W5          N/A  WCI  38
$$

SUPPLEMENTAL OBSERVATIONS (WEST)

CITY           SKY/WX    TMP DP  RH WIND       PRES   REMARKS
MILLERS CREEK    N/A     34  21  60 SW9         N/A  WCI  26
POSSUM KINGDOM   N/A     37  25  60 S7          N/A  WCI  32
GRANBURY         N/A     36  28  75 W2          N/A
COMANCHE         N/A     39  25  56 SW9         N/A  WCI  33
HAMBY            N/A     36  27  69 S7          N/A  WCI  30
IVIE RESERVOIR   N/A     34  25  69 S6          N/A  WCI  29
COLORADO BEND    N/A     37  25  60 SW3         N/A
$$

SUPPLEMENTAL OBSERVATIONS (EAST)

CITY           SKY/WX    TMP DP  RH WIND       PRES   REMARKS
CLARKSVILLE      N/A     37  34  87 SW3         N/A
TEXARKANA        N/A     30  28  93 CALM        N/A
LINDEN           N/A     32  28  86 CALM        N/A
CADDO LAKE       N/A     30  30 100 CALM        N/A
GILMER           N/A     34  30  86 SW2         N/A
HENDERSON        N/A     34  30  86 CALM        N/A
LUFKIN           N/A     34  32  93 MISG        N/A
S SABINE NF      N/A     36  32  87 SW3         N/A
$$

SUPPLEMENTAL OBSERVATIONS ARE A COLLECTION OF AUTOMATED INSTRUMENTS
THAT ARE MAINTAINED BY A VARIETY OF FEDERAL AND STATE AGENCIES.
CERTAIN ELEMENTS...SUCH AS HUMIDITY VALUES AND SUSTAINED WIND
SPEEDS...MAY BE APPROXIMATED.



USA.gov is the U.S. government's official web portal to all federal, state and local government web resources and services.